Showing default

JAY-C, 62668

Orbit data source: Space-Track

JAY-C, 62668 is a Canadian payload satellite in SSO that was launched on Tue, 14 Jan 2025 UTC via an FALCON 9 launch vehicle from the Air Force Western Test Range (AFWTR). Payload-class satellites include a variety of spacecraft equipped with specific instruments for various scientific and technological missions. These include communications satellites like Starlink; space stations such as the ISS; scientific satellites like the Hubble; Earth observation satellites from companies like Planet Labs, Umbra, and HawkEye 360; GPS; miniature CubeSats for education and research; and military/defense satellites.

Loading next visibility...
Identifier
62668, 2025-009BM
Orbit
SSO
Country
Flag of CACA
Related business
Manufacturer
UTIAS-SFL
Mission
Operational Commercial Imaging
Bus & Motor
DEFIANT, Unknown motor
Mass
~35 kg wet, ~35 kg dry
Launch date (UTC)
2025-01-14 (1 year ago)
Launch vehicle
FALCON 9
Launch site
Air Force Western Test Range (AFWTR)
Object type
Payload
Rocket body
Debris
Shape & HBR
Box + 2 Pan, 0.6 m
Radar Cross Section
0.165 m², Medium (>0.1 m² and < 1m²)

Expand to show TLE details & history
Last TLE update: 3 hours ago

TLE from 3 hours ago
0 JAY-C
1 62668U 25009BM  26068.51475532  .00005151  00000-0  23120-3 0  9991
2 62668  97.4007 149.0698 0003752 349.4002  10.7154 15.21611655121211
Epoch: 2026-03-09T12:21Z
TLE epoch observation values (Epoch: 2026-03-09T12:21:14.859Z)
Latitude
-0.00006°
Longitude
156.5513°
Altitude
501.535 km
Speed
7.615 km/s
True Right ascension
09h 56m 16s
True Declination
0° 00' 00"
Sunlit
Object was in full shadow at epoch
Visualization orbit readout
Latitude
Unknown
Longitude
Unknown
Altitude
Unknown
Speed
Unknown
Apparent Right ascension
Unknown
Apparent Declination
Unknown
Sunlit
N/A
Visualization observer readout
Local Sidereal Time
19:52:24
Azimuth
Unknown
Elevation
Unknown
Doppler factor
Unknown
Orbital elements
Apogee altitude
500.522 km
Perigee altitude
495.362 km
Semi-major axis
6,876.079 km
Eccentricity
0.00038
Inclination
97.4007°
RAAN
149.0698°
Arg. of periapsis
349.4002°
True anomaly
10.7234°
Mean anomaly
10.7154°
Eccentric anomaly
10.7194°
Mean motion
3.80655 °/min
Orbital period
94.57 mins
BSTAR
0.0002312
Loading maneuver chart data...
Computing Atmospheric mass density...
Loading historical data...
Loading historical data...
Loading historical data...
Loading historical data...
Loading historical data...
Loading historical data...
Loading historical data...

Documentation

Showing up to 5 results
|